Weather History for Beeville, TX

Change the Weather History Date:

Saturday, June 15, 2013

  Actual Average (KCRP) Record (KCRP)
Temperature  
Mean Temperature 86 °F 82 °F  
Max Temperature 98 °F 91 °F 103 °F (1998)
Min Temperature 76 °F 74 °F 63 °F (1979)
Degree Days  
Heating Degree Days 0 0  
Month to date heating degree days 0  
Since 1 June heating degree days 0  
Since 1 July heating degree days 898  
Cooling Degree Days 22 17  
Month to date cooling degree days 250  
Year to date cooling degree days 1091  
Since 1 June cooling degree days 250  
Growing Degree Days 36 (Base 50)    
Moisture  
Dew Point 73 °F    
Average Humidity 70    
Maximum Humidity 100    
Minimum Humidity 32    
Precipitation  
Precipitation 0.00 in 0.11 in 2.12 in (1977)
Month to date precipitation 1.61  
Year to date precipitation 11.88  
Snow  
Snow 0.00 in - - ()
Month to date snowfall  
Since 1 June snowfall  
Since 1 July snowfall  
Snow Depth -    
Sea Level Pressure  
Sea Level Pressure 29.93 in    
Wind  
Wind Speed 8 mph (SE)    
Max Wind Speed 16 mph    
Max Gust Speed 22 mph    
Visibility 9 miles    
Events      
T = Trace of Precipitation, MM = Missing Value Source: NWS Daily Summary

Daily Weather History Graph

Daily Weather History Graph

Search for Another Location

Airport:

Trip Planner

Search our weather history database for the weather conditions in past years. The results will help you decide how hot, cold, wet, or windy it might be!

Date:

Astronomy

Jun. 15, 2013 Rise Set
Actual Time 6:33 AM CDT 8:29 PM CDT
Civil Twilight 6:06 AM CDT 8:56 PM CDT
Nautical Twilight 5:34 AM CDT 9:29 PM CDT
Astronomical Twilight 4:59 AM CDT 10:03 PM CDT
Moon 12:40 PM CDT (6/15) 12:32 AM CDT (6/15)
Length of Visible Light 14h 50m
Length of Day
13h 56m
Waxing Crescent, 40% of the Moon is Illuminated
Jun 15
Waxing Crescent
Jun 16
First Quarter
Jun 23
Full
Jun 29
Last Quarter
Jul 8
New

Hourly Weather History & Observations

Time (CDT) Temp. Heat Index Dew Point Humidity Pressure Visibility Wind Dir Wind Speed Gust Speed Precip Events Conditions
12:15 AM 80.6 °F 87.7 °F 78.1 °F 92% 29.93 in 10.0 mi SE 5.8 mph - N/A   Clear
12:35 AM 80.6 °F 87.9 °F 78.3 °F 93% 29.93 in 10.0 mi SE 8.1 mph - N/A   Clear
12:55 AM 80.6 °F 87.7 °F 78.1 °F 92% 29.93 in 10.0 mi SE 8.1 mph - N/A   Clear
1:15 AM 80.6 °F 87.9 °F 78.3 °F 93% 29.93 in 10.0 mi SE 6.9 mph - N/A   Clear
1:35 AM 80.2 °F 87.0 °F 78.3 °F 94% 29.93 in 10.0 mi SE 6.9 mph - N/A   Clear
1:55 AM 80.1 °F 86.6 °F 78.4 °F 95% 29.93 in 10.0 mi SE 5.8 mph - N/A   Clear
2:15 AM 79.7 °F - 78.3 °F 95% 29.92 in 10.0 mi SE 4.6 mph - N/A   Clear
2:35 AM 79.5 °F - 78.1 °F 95% 29.91 in 10.0 mi SE 5.8 mph - N/A   Clear
2:55 AM 79.2 °F - 78.1 °F 96% 29.91 in 10.0 mi SE 4.6 mph - N/A   Clear
3:15 AM 78.8 °F - 77.9 °F 97% 29.91 in 10.0 mi SE 4.6 mph - N/A   Clear
3:35 AM 78.8 °F - 77.9 °F 97% 29.91 in 10.0 mi Calm Calm - N/A   Clear
3:55 AM 78.3 °F - 77.9 °F 99% 29.90 in 10.0 mi SSE 4.6 mph - N/A   Clear
4:15 AM 78.1 °F - 77.5 °F 98% 29.90 in 10.0 mi SE 4.6 mph - N/A   Clear
4:35 AM 77.9 °F - 77.5 °F 99% 29.91 in 10.0 mi Calm Calm - N/A   Clear
4:55 AM 77.0 °F - 77.0 °F 100% 29.91 in 7.0 mi SSE 4.6 mph - N/A   Clear
5:15 AM 77.0 °F - 77.0 °F 100% 29.92 in 7.0 mi ESE 3.5 mph - N/A   Clear
5:35 AM 77.0 °F - 77.0 °F 100% 29.91 in 5.0 mi ESE 3.5 mph - N/A   Clear
5:55 AM 76.8 °F - 76.8 °F 100% 29.92 in 5.0 mi SE 3.5 mph - N/A   Clear
6:15 AM 76.5 °F - 76.5 °F 100% 29.92 in 5.0 mi Calm Calm - N/A   Clear
6:35 AM 76.8 °F - 76.8 °F 100% 29.92 in 5.0 mi Calm Calm - N/A   Clear
6:55 AM 76.5 °F - 76.5 °F 100% 29.93 in 4.0 mi Calm Calm - N/A   Scattered Clouds
7:15 AM 77.2 °F - 77.2 °F 100% 29.94 in 5.0 mi Calm Calm - N/A   Scattered Clouds
7:35 AM 77.4 °F - 77.4 °F 100% 29.95 in 7.0 mi ESE 3.5 mph - N/A   Clear
7:55 AM 78.3 °F - 78.3 °F 100% 29.95 in 7.0 mi ESE 4.6 mph - N/A   Clear
8:15 AM 79.9 °F - 79.0 °F 97% 29.96 in 10.0 mi SSE 4.6 mph - N/A   Scattered Clouds
8:35 AM 81.7 °F 90.2 °F 78.1 °F 89% 29.97 in 10.0 mi SSE 6.9 mph - N/A   Scattered Clouds
8:55 AM 83.5 °F 93.6 °F 77.9 °F 83% 29.98 in 10.0 mi SSE 9.2 mph - N/A   Clear
9:15 AM 85.1 °F 94.5 °F 76.1 °F 74% 29.97 in 10.0 mi South 12.7 mph - N/A   Scattered Clouds
9:35 AM 85.6 °F 94.2 °F 74.7 °F 70% 29.98 in 10.0 mi South 11.5 mph - N/A   Mostly Cloudy
9:55 AM 84.4 °F 90.6 °F 72.9 °F 68% 29.98 in 10.0 mi South 13.8 mph - N/A   Scattered Clouds
10:15 AM 87.3 °F 94.5 °F 72.7 °F 62% 29.98 in 10.0 mi South 11.5 mph 17.3 mph N/A   Scattered Clouds
10:35 AM 90.0 °F 96.4 °F 71.4 °F 54% 29.97 in 10.0 mi South 13.8 mph 21.9 mph N/A   Scattered Clouds
10:55 AM 88.9 °F 95.6 °F 71.8 °F 57% 29.98 in 10.0 mi South 12.7 mph 19.6 mph N/A   Scattered Clouds
11:15 AM 87.8 °F 93.8 °F 71.2 °F 58% 29.98 in 10.0 mi South 12.7 mph - N/A   Mostly Cloudy
11:35 AM 90.3 °F 96.7 °F 71.1 °F 53% 29.97 in 10.0 mi South 10.4 mph 17.3 mph N/A   Scattered Clouds
11:55 AM 91.4 °F 97.3 °F 70.5 °F 50% 29.97 in 10.0 mi SSE 13.8 mph 17.3 mph N/A   Scattered Clouds
12:15 PM 91.6 °F 97.2 °F 69.8 °F 49% 29.97 in 10.0 mi SSE 10.4 mph - N/A   Scattered Clouds
12:35 PM 91.0 °F 96.1 °F 69.4 °F 49% 29.96 in 10.0 mi SSE 8.1 mph - N/A   Mostly Cloudy
12:55 PM 91.2 °F 97.5 °F 70.7 °F 51% 29.96 in 10.0 mi SSE 9.2 mph - N/A   Mostly Cloudy
1:15 PM 94.6 °F 101.1 °F 70.5 °F 45% 29.95 in 10.0 mi SE 11.5 mph 16.1 mph N/A   Scattered Clouds
1:35 PM 96.1 °F 101.6 °F 68.9 °F 41% 29.95 in 10.0 mi SE 10.4 mph - N/A   Clear
1:55 PM 95.7 °F 101.5 °F 69.4 °F 42% 29.94 in 10.0 mi ESE 13.8 mph 18.4 mph N/A   Scattered Clouds
2:15 PM 96.4 °F 102.4 °F 69.4 °F 41% 29.93 in 10.0 mi SSE 10.4 mph 19.6 mph N/A   Scattered Clouds
2:35 PM 96.3 °F 100.8 °F 67.5 °F 39% 29.93 in 10.0 mi ESE 10.4 mph 16.1 mph N/A   Scattered Clouds
2:55 PM 95.7 °F 99.2 °F 66.6 °F 38% 29.92 in 10.0 mi ESE 10.4 mph - N/A   Scattered Clouds
3:15 PM 97.7 °F 102.4 °F 67.6 °F 37% 29.92 in 10.0 mi SE 10.4 mph - N/A   Scattered Clouds
3:35 PM 97.5 °F 102.0 °F 67.5 °F 37% 29.91 in 10.0 mi SE 10.4 mph 18.4 mph N/A   Scattered Clouds
3:55 PM 96.6 °F 101.5 °F 67.6 °F 39% 29.90 in 10.0 mi SE 11.5 mph 19.6 mph N/A   Scattered Clouds
4:15 PM 96.4 °F 100.6 °F 66.7 °F 38% 29.90 in 10.0 mi SSE 11.5 mph 16.1 mph N/A   Scattered Clouds
4:35 PM 97.3 °F 101.7 °F 66.9 °F 37% 29.90 in 10.0 mi SSE 15.0 mph 21.9 mph N/A   Scattered Clouds
4:55 PM 97.0 °F 99.9 °F 65.5 °F 35% 29.89 in 10.0 mi SE 16.1 mph 19.6 mph N/A   Clear
5:15 PM 96.1 °F 97.8 °F 63.3 °F 34% 29.89 in 10.0 mi SE 15.0 mph 20.7 mph N/A   Clear
5:35 PM 96.8 °F 98.0 °F 62.1 °F 32% 29.89 in 10.0 mi SE 13.8 mph 20.7 mph N/A   Clear
5:55 PM 94.1 °F 95.0 °F 62.4 °F 35% 29.88 in 10.0 mi SE 11.5 mph 18.4 mph N/A   Clear
6:15 PM 95.0 °F 96.0 °F 62.4 °F 34% 29.88 in 10.0 mi SSE 13.8 mph 20.7 mph N/A   Clear
6:35 PM 92.8 °F 94.3 °F 64.0 °F 38% 29.88 in 10.0 mi SE 10.4 mph 17.3 mph N/A   Clear
6:55 PM 93.4 °F 95.2 °F 64.0 °F 38% 29.88 in 10.0 mi SE 11.5 mph - N/A   Clear
7:15 PM 92.3 °F 94.3 °F 64.8 °F 40% 29.89 in 10.0 mi SE 13.8 mph 19.6 mph N/A   Clear
7:35 PM 90.9 °F 93.5 °F 66.4 °F 44% 29.89 in 10.0 mi SE 11.5 mph 18.4 mph N/A   Clear
7:55 PM 88.5 °F 93.5 °F 70.0 °F 54% 29.89 in 10.0 mi SSE 13.8 mph 18.4 mph N/A   Clear
8:15 PM 86.9 °F 91.7 °F 69.8 °F 57% 29.90 in 10.0 mi SSE 12.7 mph - N/A   Clear
8:35 PM 85.1 °F 89.4 °F 69.8 °F 60% 29.91 in 10.0 mi SSE 12.7 mph - N/A   Clear
8:55 PM 84.2 °F 89.3 °F 71.1 °F 65% 29.91 in 10.0 mi SE 11.5 mph 19.6 mph N/A   Clear
9:15 PM 83.1 °F 88.4 °F 72.1 °F 69% 29.92 in 10.0 mi SSE 10.4 mph - N/A   Clear
9:35 PM 82.4 °F 88.2 °F 73.2 °F 74% 29.93 in 10.0 mi SE 11.5 mph 16.1 mph N/A   Clear
9:55 PM 81.7 °F 87.1 °F 73.6 °F 76% 29.93 in 10.0 mi SE 11.5 mph - N/A   Clear
10:15 PM 81.1 °F 86.8 °F 74.3 °F 80% 29.94 in 10.0 mi SE 8.1 mph - N/A   Clear
10:35 PM 80.8 °F 86.1 °F 74.5 °F 81% 29.94 in 10.0 mi SE 6.9 mph - N/A   Scattered Clouds
10:55 PM 80.6 °F 85.9 °F 74.5 °F 82% 29.95 in 10.0 mi SE 8.1 mph - N/A   Clear
11:15 PM 79.9 °F - 74.7 °F 84% 29.96 in 10.0 mi SE 8.1 mph - N/A   Clear
11:35 PM 79.7 °F - 75.2 °F 86% 29.96 in 10.0 mi SE 8.1 mph - N/A   Clear
11:55 PM 79.3 °F - 75.2 °F 87% 29.96 in 10.0 mi SE 6.9 mph - N/A   Clear